Showing default

PORCUPINE 2, 1577

Orbit data source: Space-Track

PORCUPINE 2, 1577 is a payload satellite owned by NRL (US) in LEO that was launched on Fri, 13 Aug 1965 UTC via a THOR ABLESTAR launch vehicle from the Air Force Western Test Range (AFWTR). Payload-class satellites include a variety of spacecraft equipped with specific instruments for various scientific and technological missions. These include communications satellites like Starlink; space stations such as the ISS; scientific satellites like the Hubble; Earth observation satellites from companies like Planet Labs, Umbra, and HawkEye 360; GPS; miniature CubeSats for education and research; and military/defense satellites.

Loading next visibility...
Identifier
1577, 1965-065J
Orbit
LEO
Country
Flag of USUS
Related business
Manufacturer
NRL
Mission
Spacecraft
Bus & Motor
SURCAL, Unknown motor
Mass
5 kg wet, 5 kg dry
Launch date (UTC)
1965-08-13 (60 years ago)
Launch vehicle
THOR ABLESTAR
Launch site
Air Force Western Test Range (AFWTR)
Object type
Payload
Rocket body
Debris
Shape & HBR
Unknown
Radar Cross Section
Medium (>0.1 m² and <1 m²)

Expand to show TLE details & history
Last TLE update: 15 hours ago

TLE from 15 hours ago
0 PORCUPINE 2
1  1577U 65065J   25312.71966294  .00000181  00000-0  33080-3 0  9996
2  1577  90.0208 211.5296 0070614   7.2308  19.0752 13.36207150933215
Epoch: 2025-11-08T17:16Z
TLE epoch observation values (Epoch: 2025-11-08T17:16:18.878Z)
Latitude
26.6061°
Longitude
-95.70466°
Altitude
1,076.689 km
Speed
7.34 km/s
True Right ascension
14h 06m 04s
True Declination
26° 28' 28"
Sunlit
Object was in daylight at epoch
Visualization orbit readout
Latitude
Unknown
Longitude
Unknown
Altitude
Unknown
Speed
Unknown
Apparent Right ascension
Unknown
Apparent Declination
Unknown
Sunlit
N/A
Visualization observer readout
Local Sidereal Time
04:12:05
Azimuth
Unknown
Elevation
Unknown
Doppler factor
Unknown
Orbital elements
Apogee altitude
1,173.462 km
Perigee altitude
1,067.56 km
Semi-major axis
7,498.648 km
Eccentricity
0.00706
Inclination
90.0208°
RAAN
211.5296°
Arg. of periapsis
7.2308°
True anomaly
19.34187°
Mean anomaly
19.0752°
Eccentric anomaly
19.20831°
Mean motion
3.34248 °/min
Orbital period
107.7 mins
BSTAR
0.0003308
Loading maneuver chart data...
Computing Atmospheric mass density...
Loading historical data...
Loading historical data...
Loading historical data...
Loading historical data...
Loading historical data...
Loading historical data...
Loading historical data...

Documentation

Showing up to 5 results
|